Preview of NWS' New Version of Forecast
This preview is not operational and should not be used for support decisions.

Regional Weather Roundup (RWR)

Issued by National Weather Service (NWS)

                            
000
ASUS45 KCYS 171910
RWRWY 

WYOMING REGIONAL WEATHER ROUNDUP
NATIONAL WEATHER SERVICE CHEYENNE WY
1200 PM MST SUN FEB 17 2019

NOTE:  "FAIR" INDICATES FEW OR NO CLOUDS BELOW 12,000 FEET
WITH NO SIGNIFICANT WEATHER AND/OR OBSTRUCTIONS TO VISIBILITY.

WYZ001-172000-
YELLOWSTONE NATIONAL PARK
  
CITY           SKY/WX    TMP DP  RH WIND       PRES   REMARKS
LK YELLOWSTONE   N/A     14   7  73 E3        29.77S                  
W YELLOWSTONE  NOT AVBL                                               

$$
WYZ002>013-054>058-071-098>099-172000-
NORTHERN WYOMING
  
CITY           SKY/WX    TMP DP  RH WIND       PRES   REMARKS
JACKSON        FAIR      22  10  60 NE3       29.81F                  
CODY           CLOUDY    11   4  73 NE13      29.98S WCI  -4          
GREYBULL       CLOUDY    13   6  74 NW14      30.05R WCI  -2          
WORLAND        FLURRIES  16   8  71 N9        30.02S WCI   4          
SHERIDAN       CLOUDY     5  -2  72 NW13      30.12S HAZE    WCI -12  
BUFFALO        FAIR       5  -3  69 N17       29.99S WCI -14          
GILLETTE       CLOUDY     3  -3  76 N15       30.04S HAZE    WCI -16  
HULETT         LGT SNOW   1  -8  66 MISG      30.06                   
NEWCASTLE        N/A      5  -8  56 NW18      30.02  WCI -15          

$$
WYZ014>020-022>026-101>103-172000-
CENTRAL WYOMING
  
CITY           SKY/WX    TMP DP  RH WIND       PRES   REMARKS
BIG PINEY      FAIR       3  -2  79 CALM      29.82S                  
PINEDALE       FAIR       1  -4  78 E8        29.82  WCI -12          
DUBOIS         CLOUDY    25   5  42 SE8       29.75  WCI  16          
LANDER         LGT SNOW  20  12  71 CALM      29.87S                  
RIVERTON       CLOUDY    20  11  68 NE12      29.88R WCI   8          
CASPER         CLOUDY    11   5  77 NE9       29.94R WCI  -2          
DOUGLAS        CLOUDY    11   3  70 N12       29.97R WCI  -3          

$$
WYZ021-027>030-104>119-172000-
SOUTHERN WYOMING
  
CITY           SKY/WX    TMP DP  RH WIND       PRES   REMARKS
EVANSTON       FAIR      20   8  60 E5        29.77R WCI  13          
KEMMERER       FAIR      28   9  43 CALM      29.78                   
FORT BRIDGER   CLEAR     18  10  73 SW3       29.82S                  
ROCK SPRINGS   FAIR      20   9  62 CALM      29.81S                  
DIXON          FAIR      22  12  66 NE5       29.87S WCI  15          
RAWLINS        FAIR      20  12  71 W14       29.81R WCI   7          
SARATOGA       CLOUDY    25  12  58 W14       29.81S WCI  13          
LARAMIE        PTSUNNY   25   3  38 N17G26    29.73F WCI  12          
CHEYENNE       FAIR      15   8  73 N14G20    29.81R WCI   0          
TORRINGTON     CLOUDY    19   1  45 N20G30    29.96F WCI   3          
PINE BLUFFS    LGT SNOW  18  10  73 N14       29.90R WCI   4          

$$